Satellite-Ground Cal/Val Site Overpasses Predictions

Prediction of Satellite NPP Overpassing Cal/Val Site: Antarctic Dome C

Ground Cal/Val Site Location: Latitude: -75.10, Longitude: 123.35; Satellite-Ground Site NADIR distance within 100 km.

Table of predicted overpasses for the next 14.0 days since TLE Epoch: 7/13/2018
Interval Starting Time Ending Time Minimum Distance Time Minimum Distance (km)
1 07/14/2018 07:18:46 07/14/2018 07:19:04 07/14/2018 07:18:55 77.89
2 07/16/2018 15:01:00 07/16/2018 15:01:24 07/16/2018 15:01:12 56.64
3 07/17/2018 14:42:09 07/17/2018 14:42:34 07/17/2018 14:42:21 52.46
4 07/18/2018 07:43:50 07/18/2018 07:44:11 07/18/2018 07:44:00 67.44
5 07/19/2018 07:24:58 07/19/2018 07:25:25 07/19/2018 07:25:11 40.70
6 07/21/2018 15:07:23 07/21/2018 15:07:32 07/21/2018 15:07:27 94.10
7 07/22/2018 14:48:22 07/22/2018 14:48:51 07/22/2018 14:48:37 17.12
8 07/24/2018 07:31:11 07/24/2018 07:31:40 07/24/2018 07:31:26 4.45


NCC Satellite Cal/Val Overpasses Prediction Service
